THORAD DELTA 1 DEB, 10393

Orbit data source: Space-Track

THORAD DELTA 1 DEB, 10393 is space debris in SSO originally from a launch on Fri, 15 Nov 1974 UTC launched from the Air Force Western Test Range (AFWTR). Debris objects in space refer to the collection of defunct objects orbiting the Earth. Examples of debris include non-operational satellites, rocket bodies, and fragments generated from explosions, collisions, or faulty payload assembly.

Loading next visibility...
Identifier
10393, 1974-089EJ
Orbit
SSO
Country
Flag of USUS
Related business
Manufacturer
Unknown
Mission
Spacecraft
Bus & Motor
Unknown
Mass
Unknown
Launch date (UTC)
1974-11-15 (51 years ago)
Launch vehicle
Unknown
Launch site
Air Force Western Test Range (AFWTR)
Object type
Payload
Rocket body
Debris
Shape & HBR
Unknown shape, 0.2 m
Radar Cross Section
Small (<0.1 m²)

Expand to show TLE details & history
Last TLE update: 1 day ago

TLE from 1 day ago
0 THORAD DELTA 1 DEB
1 10393U 74089EJ  25351.32094186 -.00000040  00000-0  93313-5 0  9992
2 10393 101.6053 292.0300 0157794 265.6918 250.5200 12.24125775287759
Epoch: 2025-12-17T07:42Z
TLE epoch observation values (Epoch: 2025-12-17T07:42:09.376Z)
Latitude
24.95196°
Longitude
-84.24481°
Altitude
1,620.919 km
Speed
7.043 km/s
True Right ascension
07h 49m 56s
True Declination
24° 50' 05"
Sunlit
Object was in full shadow at epoch
Visualization orbit readout
Latitude
Unknown
Longitude
Unknown
Altitude
Unknown
Speed
Unknown
Apparent Right ascension
Unknown
Apparent Declination
Unknown
Sunlit
N/A
Visualization observer readout
Local Sidereal Time
16:22:48
Azimuth
Unknown
Elevation
Unknown
Doppler factor
Unknown
Orbital elements
Apogee altitude
1,697.645 km
Perigee altitude
1,446.742 km
Semi-major axis
7,950.331 km
Eccentricity
0.01578
Inclination
101.6053°
RAAN
292.03°
Arg. of periapsis
265.6918°
True anomaly
248.82671°
Mean anomaly
250.52°
Eccentric anomaly
249.67221°
Mean motion
3.06172 °/min
Orbital period
117.58 mins
BSTAR
0.0000093313
Loading maneuver chart data...
Computing Atmospheric mass density...

Documentation

Showing up to 5 results
|